{"data":{"norad_id":49000,"epoch":"2026-09-19T15:16:46.952256Z","epoch_age_seconds":96588,"freshness":"FRESH","line1":"1 49000U 21060AK  26262.63665454  .00000031  00000+0  46748-4 0  9995","line2":"2 49000  87.9156 210.0274 0001951  73.8947 286.2398 13.16595673252037","mean_motion":13.16595673,"eccentricity":0.0001951,"inclination_deg":87.9156,"raan_deg":210.0274,"arg_perigee_deg":73.8947,"mean_anomaly_deg":286.2398,"bstar":4.6748e-5,"rev_number":25203,"period_min":109.37298591593,"perigee_km":1196.2731793773,"apogee_km":1199.2292909666,"semimajor_km":7575.8882351719,"source":"CELESTRAK","updated_at":"2026-09-20T09:00:44.629915Z"}}